[[{"header":{"parameterUnit":"m.s-1","parameterCategory":1,"la1":30.2992,"la2":30.254,"lo1":-89.0895,"lo2":-89.0443,"dy":0.0025,"dx":0.0025,"nx":19,"ny":19,"refTime":"2026-05-02T21:00:00:Z","depth":0,"parameterNumber":2,"parameterNumberName":"U-component_of_WINDS"},"data":[0,0,0,-0.7472,-0.7475,-0.7651,-0.7652,-0.7882,-0.7884,0,0,0,0,0,0,0,0,0,0,0,-0.7421,-0.7423,-0.7471,-0.7476,-0.7651,-0.7652,-0.7881,-0.7884,0,0,0,0,0,0,0,0,0,0,0,-0.7421,-0.7423,-0.7425,-0.7476,-0.7651,-0.7652,-0.7881,-0.7747,0,0,0,0,0,0,0,0,0,0,-0.7576,-0.7531,-0.7422,-0.7425,-0.7478,-0.7651,-0.7652,-0.774,-0.7755,-0.7804,0,-0.7846,0,-0.7868,-0.7899,-0.79,0,0,0,-0.7475,-0.7518,-0.7564,-0.7425,-0.7479,-0.765,-0.7572,-0.7749,-0.7766,-0.7824,-0.7849,-0.7858,-0.7872,-0.7901,-0.7902,-0.8182,-0.8183,0,0,-0.7466,-0.7455,-0.7552,-0.7575,-0.7546,-0.7566,-0.7577,-0.7759,-0.7787,-0.785,-0.7863,-0.7876,-0.7902,-0.7904,-0.8181,-0.8183,0,0,0,-0.7438,-0.7448,-0.7489,-0.7565,-0.7596,-0.7571,-0.7584,-0.7779,-0.7793,-0.7866,-0.7879,-0.7904,-0.7907,-0.818,-0.8182,-0.8239,0,0,0,-0.7432,-0.7432,-0.7484,-0.748,-0.7593,-0.7689,-0.76,-0.778,-0.7801,-0.7878,-0.7904,-0.7909,-0.8178,-0.8181,-0.8234,-0.827,0,0,0,-0.741,-0.7429,-0.7455,-0.7479,-0.7553,-0.7687,-0.7711,-0.7785,-0.7809,-0.79,-0.791,-0.8177,-0.818,-0.823,-0.8263,-0.8343,0,0,0,-0.7383,-0.7503,-0.7455,-0.7595,-0.7552,-0.7719,-0.771,-0.7836,-0.792,-0.7905,-0.8178,-0.8181,-0.8229,-0.8258,-0.8338,-0.8411,-0.8439,0,0,-0.7529,-0.752,-0.7603,-0.7565,-0.7739,-0.7693,-0.7875,-0.7964,-0.7983,-0.8115,-0.8122,-0.8236,-0.8262,-0.8342,-0.8593,-0.8615,0,0,0,-0.7646,-0.7706,-0.7753,-0.7833,-0.7901,-0.7965,-0.8026,-0.8059,-0.8171,-0.8048,-0.8284,-0.83,-0.8348,-0.8384,-0.8403,-0.8446,-0.8196,-0.8196,-0.8195,-0.784,-0.7856,-0.7995,-0.8033,-0.811,-0.8171,-0.8236,-0.8291,-0.8285,-0.8341,-0.8382,-0.8532,-0.8573,-0.8588,-0.8632,-0.8418,-0.8418,-0.8418,-0.8418,-0.8059,-0.8148,-0.8136,-0.8267,-0.8284,-0.8395,-0.8458,-0.8451,-0.8558,-0.8502,-0.8545,-0.8487,-0.8612,-0.8652,-0.8423,-0.8422,-0.8422,-0.8421,-0.8421,-0.8192,-0.8238,-0.8273,-0.839,-0.8478,-0.8511,-0.8615,-0.8626,-0.8637,-0.8679,-0.8726,-0.8725,-0.8729,-0.8699,-0.87,-0.87,-0.8701,-0.8701,-0.8701,-0.8318,-0.8356,-0.8442,-0.8524,-0.8577,-0.8648,-0.8709,-0.8762,-0.8824,-0.8824,-0.8824,-0.8816,-0.8618,-0.8571,-0.871,-0.8708,-0.8707,-0.8706,-0.8706,-0.8543,-0.8493,-0.8625,-0.8678,-0.8776,-0.8865,-0.8875,-0.8982,-0.9027,-0.9078,-0.9059,-0.891,-0.8903,-0.8888,-0.885,-0.9052,-0.9052,-0.9052,-0.9052,-0.8659,-0.8655,-0.8793,-0.8877,-0.896,-0.8983,-0.9135,-0.9183,-0.9226,-0.9255,-0.9226,-0.9174,-0.9158,-0.9161,-0.914,-0.9105,-0.9368,-0.9368,-0.9369,-0.8801,-0.8805,-0.8932,-0.8971,-0.9048,-0.9114,-0.9258,-0.9357,-0.9394,-0.9382,-0.928,-0.9266,-0.9182,-0.9153,-0.9144,-0.9111,-0.9046,0,0]},{"header":{"parameterUnit":"m.s-1","parameterCategory":1,"la1":30.2992,"la2":30.254,"lo1":-89.0895,"lo2":-89.0443,"dy":0.0025,"dx":0.0025,"nx":19,"ny":19,"refTime":"2026-05-02T21:00:00:Z","depth":0,"parameterNumber":3,"parameterNumberName":"V-component_of_WINDS"},"data":[0,0,0,-6.4021,-6.4028,-6.433,-6.4331,-6.4736,-6.474,0,0,0,0,0,0,0,0,0,0,0,-6.3945,-6.3948,-6.4021,-6.4029,-6.433,-6.4331,-6.4735,-6.474,0,0,0,0,0,0,0,0,0,0,0,-6.3944,-6.3948,-6.3952,-6.403,-6.433,-6.4331,-6.4734,-6.45,0,0,0,0,0,0,0,0,0,0,-6.4203,-6.4146,-6.3947,-6.3952,-6.4032,-6.4329,-6.4331,-6.4488,-6.4514,-6.4608,0,-6.4696,0,-6.4725,-6.4768,-6.477,0,0,0,-6.4019,-6.4125,-6.4194,-6.3952,-6.4035,-6.4329,-6.4191,-6.4502,-6.4532,-6.4643,-6.4702,-6.4716,-6.4731,-6.4771,-6.4773,-6.5352,-6.5355,0,0,-6.4002,-6.4006,-6.4174,-6.4214,-6.417,-6.4182,-6.4201,-6.452,-6.4584,-6.4703,-6.4725,-6.4738,-6.4774,-6.4777,-6.5349,-6.5353,0,0,0,-6.3961,-6.3995,-6.4056,-6.4198,-6.4251,-6.4191,-6.4213,-6.457,-6.4589,-6.4729,-6.4743,-6.4776,-6.4781,-6.5346,-6.5351,-6.5515,0,0,0,-6.395,-6.3971,-6.405,-6.4055,-6.4245,-6.4414,-6.4255,-6.4567,-6.4603,-6.4741,-6.4776,-6.4785,-6.5342,-6.5348,-6.5503,-6.5593,0,0,0,-6.3921,-6.3967,-6.4016,-6.4055,-6.4185,-6.4409,-6.4447,-6.4575,-6.4612,-6.477,-6.4787,-6.534,-6.5347,-6.5492,-6.5575,-6.5749,0,0,0,-6.389,-6.4156,-6.4018,-6.432,-6.4182,-6.4508,-6.4445,-6.4687,-6.4841,-6.4778,-6.5343,-6.535,-6.5489,-6.5564,-6.5738,-6.5899,-6.5965,0,0,-6.4228,-6.4197,-6.4373,-6.4259,-6.4612,-6.4462,-6.4838,-6.4974,-6.4983,-6.5228,-6.5242,-6.5507,-6.5574,-6.5747,-6.6332,-6.6385,0,0,0,-6.4482,-6.461,-6.4702,-6.4851,-6.4962,-6.5065,-6.5144,-6.5194,-6.5403,-6.5111,-6.5615,-6.5655,-6.5756,-6.5833,-6.5878,-6.5966,-6.5385,-6.5384,-6.5383,-6.4967,-6.4967,-6.526,-6.5296,-6.5441,-6.552,-6.5637,-6.5718,-6.5673,-6.5793,-6.5867,-6.6222,-6.6312,-6.6346,-6.6438,-6.5949,-6.5949,-6.595,-6.595,-6.5464,-6.5646,-6.5581,-6.5843,-6.584,-6.6059,-6.6145,-6.6106,-6.6309,-6.6166,-6.6255,-6.6102,-6.6405,-6.6485,-6.5963,-6.5961,-6.5959,-6.5958,-6.5957,-6.5785,-6.5872,-6.5929,-6.6145,-6.6311,-6.6337,-6.6536,-6.6525,-6.6515,-6.6603,-6.6682,-6.6679,-6.6677,-6.6641,-6.6642,-6.6643,-6.6644,-6.6645,-6.6646,-6.6096,-6.6156,-6.6326,-6.6467,-6.6562,-6.6685,-6.6766,-6.6858,-6.6958,-6.6934,-6.6935,-6.688,-6.6433,-6.6323,-6.6665,-6.6662,-6.6659,-6.6658,-6.6656,-6.6606,-6.6489,-6.6753,-6.6848,-6.7013,-6.718,-6.7162,-6.7351,-6.7425,-6.7524,-6.745,-6.712,-6.7087,-6.7051,-6.6961,-6.7447,-6.7447,-6.7447,-6.7447,-6.688,-6.6861,-6.7129,-6.7282,-6.743,-6.7442,-6.7739,-6.7805,-6.7853,-6.7899,-6.7826,-6.7703,-6.7666,-6.7655,-6.7606,-6.7522,-6.814,-6.8141,-6.8141,-6.7195,-6.719,-6.7447,-6.7495,-6.7623,-6.7733,-6.8013,-6.8191,-6.822,-6.8169,-6.7935,-6.7906,-6.7707,-6.7642,-6.759,-6.7514,-6.7358,0,0]}]]